Dewpoint
40 41 43 44 44 45 45 46 47 44 38 37 37 36 37 53 60 61 62 60 61 61 61 61 60 57 57 56 58 60 60 61 62 60 60 61 61 61 60 57 55 53 50
40 41 42 42 44 45 46 47 47 48 47 38 39 39 43 55 56 58 61 61 60 61 61 61 60 60 60 60 60 59 60 60 61 59 58 55 57 60 60 60 58 56 55
39 40 41 42 43 44 45 46 48 50 51 44 40 42 46 54 55 57 58 60 61 61 61 60 60 60 60 61 60 60 60 59 59 60 57 55 52 53 57 58 58 57 56
40 39 41 41 42 43 45 47 48 52 52 48 42 43 45 49 53 54 57 60 60 60 62 61 60 60 60 59 60 60 60 59 58 60 60 58 56 52 49 52 56 56 56
39 39 41 42 42 42 44 46 48 49 50 52 48 48 50 50 51 52 55 58 57 57 58 58 60 60 60 59 59 59 59 60 59 58 57 59 58 57 55 52 51 52 53
39 40 41 41 41 42 43 45 45 46 48 50 50 50 50 51 49 50 51 52 51 52 53 55 55 55 55 55 57 58 59 59 59 59 58 57 56 55 55 54 53 52 52
39 40 40 40 40 40 41 41 41 42 46 46 46 46 46 46 47 47 46 46 47 46 47 49 49 49 50 51 51 54 54 53 55 57 58 58 58 57 56 54 53 52 52
38 39 39 40 40 40 40 38 36 35 38 43 44 45 44 43 42 42 42 42 43 42 43 42 43 44 46 47 49 50 49 49 50 51 51 52 55 57 58 56 54 52 53
38 39 39 39 39 39 39 38 36 31 31 29 33 34 38 39 37 36 37 37 36 35 36 36 37 38 41 43 45 46 45 47 47 48 47 48 49 49 51 52 52 54 51
39 39 39 39 39 38 38 38 36 35 31 29 27 27 29 30 30 31 29 29 29 30 30 30 32 31 34 37 39 39 41 40 42 44 44 45 46 47 49 50 49 49 48
39 39 39 39 38 38 36 35 35 32 30 28 28 26 25 25 24 23 23 24 24 23 24 25 26 27 28 32 34 33 34 34 35 37 38 40 43 44 46 44 45 46 47
39 40 39 38 37 35 35 32 32 30 29 27 25 25 25 24 23 23 23 21 20 20 18 18 19 20 22 24 26 27 28 30 32 34 35 35 38 41 40 41 43 44 45
39 40 40 38 35 35 32 31 27 26 24 24 23 22 22 23 22 22 20 17 17 17 18 18 18 18 19 19 24 25 26 26 26 28 30 31 34 36 34 40 38 41 41
38 38 37 36 33 30 26 23 22 22 22 23 22 21 20 19 18 17 17 17 17 17 17 17 18 18 19 20 26 27 28 26 25 26 27 28 30 31 32 37 37 38 37
36 35 35 34 30 29 27 24 22 22 21 20 20 18 16 16 17 17 16 16 17 17 17 18 19 20 19 18 24 27 28 28 26 26 27 28 29 30 30 29 34 35 35
34 34 34 32 31 28 27 25 23 22 21 19 17 17 15 16 16 17 17 17 18 18 19 20 20 20 20 22 24 26 28 28 27 27 28 29 28 28 26 29 32 32 32
34 34 33 31 32 30 27 26 24 22 20 19 18 16 16 16 17 18 19 19 19 19 20 21 21 21 22 23 25 26 28 29 28 28 28 28 26 28 29 29 28 29 28
33 34 32 32 32 29 26 26 25 21 20 19 17 17 17 18 19 19 19 20 20 21 21 22 22 22 23 24 25 26 29 28 28 28 26 26 25 25 25 27 27 28 27
33 33 32 32 31 28 25 25 24 21 20 18 17 18 18 19 19 19 19 20 21 22 22 22 22 23 23 24 24 25 28 28 26 24 23 24 24 25 25 26 26 25 24
32 32 32 32 29 25 24 23 21 19 18 18 18 19 19 19 18 19 19 21 22 22 23 22 23 23 22 24 22 24 27 27 26 25 25 25 24 23 25 26 26 27 26
32 33 31 29 26 22 21 20 19 18 19 19 19 20 19 17 18 18 19 20 21 21 21 21 20 19 20 21 22 24 24 25 25 26 25 24 25 25 26 27 28 28 28
32 32 29 26 22 21 20 20 18 18 17 18 19 17 16 17 17 16 18 18 18 18 19 19 20 21 21 22 22 23 24 25 25 25 26 26 27 28 27 27 27 27 27
31 30 27 23 22 22 19 17 15 16 17 17 16 16 16 17 17 18 18 18 19 19 20 19 19 21 22 22 23 23 23 24 24 25 26 27 29 29 28 28 26 26 24
29 26 24 22 20 18 16 14 17 18 17 16 16 16 17 18 18 18 18 18 19 19 19 20 22 23 22 22 23 22 24 24 25 25 27 30 28 26 26 26 27 26 25
27 23 22 21 19 16 15 16 17 17 16 16 16 16 17 17 18 18 18 19 20 21 21 23 23 21 22 23 24 23 23 23 24 24 26 25 25 25 25 26 26 24 24
24 22 21 19 15 15 15 16 16 17 17 17 17 18 19 18 19 18 19 22 22 22 22 22 23 22 22 22 23 23 23 22 22 23 24 24 25 24 24 25 24 24 24
Wind_Speed
14 17 17 20 20 19 19 23 24 22 16 16 16 15 17 15 11 12 15 18 16 14 15 12 12 10 8 11 10 5 13 11 9 9 10 12 13 16 13 13 15 18 19
14 15 17 17 18 20 21 23 25 25 21 14 12 11 13 10 12 12 15 14 18 19 17 17 13 12 13 15 12 9 8 6 6 6 4 4 7 16 19 19 19 21 16
16 18 19 20 22 22 24 24 25 26 25 19 15 14 14 9 15 15 16 20 22 15 18 15 14 13 11 11 12 11 14 13 7 13 8 5 9 6 12 22 22 23 20
14 17 18 19 20 21 21 22 24 22 21 17 18 16 16 17 14 18 20 21 24 24 16 18 9 8 6 10 12 10 13 11 15 8 16 18 5 4 5 6 14 20 20
14 15 15 15 16 18 19 17 20 20 22 24 10 6 3 8 9 14 17 14 7 10 16 16 11 6 4 6 7 9 11 12 13 14 10 13 13 12 15 19 14 9 13
12 12 12 13 14 16 17 15 18 20 21 20 20 14 11 11 10 13 18 15 13 14 20 14 13 12 12 12 9 9 9 11 12 13 13 13 7 10 14 17 21 21 21
10 9 11 12 13 15 17 14 18 19 19 19 17 16 17 18 17 15 19 19 18 14 17 16 15 13 12 11 9 8 9 11 11 10 11 11 14 14 16 18 22 20 20
9 6 8 8 9 11 13 16 14 18 15 15 16 14 17 24 9 12 16 20 13 13 13 13 14 14 14 12 10 10 10 10 11 12 12 11 11 11 16 22 23 22 20
5 4 5 5 7 9 11 12 14 14 16 17 15 16 14 11 13 15 14 11 6 8 11 13 13 14 13 12 10 10 10 10 10 10 11 13 10 10 11 12 14 14 22
3 4 4 4 2 4 7 9 11 12 11 12 13 14 13 12 12 13 14 10 10 12 13 14 15 14 12 11 11 10 8 10 7 8 10 10 10 11 10 12 12 10 15
6 6 6 4 2 1 4 6 8 8 11 11 12 11 11 12 11 11 10 9 9 13 13 13 12 12 12 10 9 10 10 10 9 8 10 11 11 10 9 9 11 11 11
8 9 10 8 6 3 3 1 1 5 5 3 4 7 7 8 10 11 12 15 17 16 16 16 14 13 12 12 11 12 11 10 9 10 12 12 13 10 12 11 12 11 10
12 13 12 13 10 7 6 5 4 3 3 5 7 8 8 10 10 10 11 12 13 13 13 12 11 13 14 14 12 14 14 14 14 13 13 11 10 11 13 13 13 12 12
16 17 16 15 14 9 5 3 2 3 3 4 5 7 8 9 9 9 9 9 8 9 9 12 12 11 10 9 10 11 13 13 13 12 12 11 11 13 14 10 11 11 12
18 17 14 10 9 10 9 6 4 3 2 3 5 7 9 10 11 12 12 10 10 11 12 12 12 12 12 8 11 10 10 12 12 11 9 10 13 17 14 13 13 12 10
17 16 13 11 7 8 8 8 4 3 2 5 5 7 8 10 10 11 13 13 14 13 13 13 13 14 11 16 15 14 12 13 14 13 11 10 12 10 14 13 16 16 16
17 15 15 13 12 11 11 9 7 4 2 1 2 3 5 7 8 9 11 12 13 14 14 14 13 14 12 16 16 15 9 13 13 15 14 12 9 9 7 10 14 14 16
13 12 13 13 13 11 11 9 6 4 3 1 1 3 4 5 7 8 8 9 10 10 12 13 14 14 12 17 16 15 12 15 17 18 18 17 15 8 12 11 11 11 10
4 11 13 13 13 12 11 9 8 6 4 4 1 1 3 5 7 7 9 9 10 12 13 13 15 16 16 16 16 12 10 14 16 15 13 13 13 8 11 11 14 14 15
2 6 12 14 16 13 12 9 7 5 3 2 2 4 5 7 8 9 10 8 10 12 13 14 15 17 15 13 12 11 8 10 12 11 13 17 17 15 12 13 13 15 17
5 7 11 11 10 13 10 8 5 3 3 1 3 5 6 6 7 7 9 10 13 13 13 13 11 12 12 12 15 16 13 12 12 11 11 12 17 18 18 19 15 13 16
6 9 11 11 11 11 9 7 6 7 3 2 3 6 6 6 6 9 9 10 13 13 13 12 12 11 12 14 16 19 19 18 13 14 13 14 19 22 21 19 18 22 18
10 10 12 14 11 9 8 7 6 6 3 2 4 5 6 7 8 9 10 11 10 11 12 12 13 13 12 12 17 19 19 20 19 15 19 26 24 23 19 19 21 20 9
15 13 13 14 13 11 8 5 6 4 2 3 4 5 6 8 8 8 8 10 10 10 11 11 13 13 15 15 12 14 16 18 17 18 17 19 21 22 21 19 16 12 11
14 14 14 13 12 12 9 8 6 5 4 4 4 6 6 6 10 10 9 11 10 10 12 11 11 15 16 15 22 23 20 19 20 25 18 13 13 15 16 15 14 14 15
14 13 12 11 11 11 9 8 8 7 6 4 4 4 6 8 9 11 11 10 14 15 15 17 17 15 19 24 25 26 26 27 27 21 17 17 15 14 15 14 14 12 14
Wind_Direction
352 352 354 1 345 338 337 332 322 316 288 286 279 271 269 269 264 265 242 216 201 205 199 201 197 180 205 234 219 235 266 265 238 236 247 249 243 255 255 239 240 243 246
349 348 354 345 345 338 344 334 325 315 308 270 265 264 279 263 259 262 264 252 225 198 201 189 192 192 206 211 221 220 234 243 202 223 214 246 244 233 237 238 243 247 246
350 353 347 349 348 344 343 331 322 313 304 280 271 260 276 266 272 260 249 238 239 220 194 192 195 201 215 213 218 211 223 236 231 221 216 216 222 218 221 232 236 238 236
356 346 348 349 345 341 332 331 325 325 324 286 255 251 261 260 281 268 245 232 234 235 207 212 189 202 203 225 231 230 232 234 239 225 221 238 220 218 286 244 234 235 234
356 342 350 351 348 340 330 336 338 344 343 333 287 284 342 48 354 351 339 319 19 7 98 68 58 34 359 327 305 279 268 253 243 232 237 231 239 238 240 271 258 267 242
348 344 349 348 344 340 335 350 356 357 5 13 19 41 58 39 34 25 32 12 20 1 39 59 62 56 47 35 18 3 337 302 281 261 252 241 226 224 229 249 261 262 261
329 343 347 351 350 345 344 355 8 9 15 31 24 33 46 47 29 24 43 21 19 13 24 36 45 46 47 35 20 27 32 4 1 342 288 259 249 247 251 251 255 255 259
312 340 346 345 341 341 354 360 15 8 24 29 35 35 50 44 22 38 49 54 1 10 21 37 44 40 40 31 23 37 31 11 18 2 356 355 1 307 246 247 251 254 248
309 324 329 341 337 339 4 12 11 16 10 26 36 41 47 49 34 39 43 41 353 17 23 40 44 39 31 28 26 36 21 23 358 21 3 341 359 349 334 351 2 294 262
282 290 292 307 344 352 352 18 13 13 12 16 31 34 33 31 34 38 36 25 14 23 31 34 33 29 26 24 23 13 14 26 0 18 355 344 342 345 351 347 338 350 344
236 248 261 266 283 34 21 5 15 3 15 15 21 25 27 32 35 35 25 9 23 20 22 22 30 19 19 10 17 11 5 13 358 18 358 356 322 351 345 348 339 346 359
232 237 239 238 236 207 163 145 338 343 328 356 39 33 34 33 28 26 14 13 14 15 17 13 15 11 6 359 22 5 356 359 353 2 1 350 345 352 354 351 340 340 349
224 231 235 233 229 228 225 207 180 153 81 38 30 34 36 31 28 24 17 12 9 12 9 8 359 0 2 355 24 5 356 354 344 351 352 336 333 343 340 343 342 335 349
228 231 228 220 206 185 177 179 108 62 40 41 35 25 19 19 19 18 12 10 6 0 3 356 357 354 352 348 23 2 349 341 339 339 341 349 352 337 330 331 327 339 340
227 234 229 227 198 174 172 176 144 106 16 7 30 19 7 7 5 1 356 353 359 357 358 353 351 353 343 353 358 352 335 334 331 332 336 337 332 323 348 333 331 334 330
225 228 226 215 210 178 175 154 162 126 48 21 37 23 10 2 357 353 352 354 355 356 353 349 348 346 343 335 336 339 342 335 329 327 331 331 321 338 342 347 354 346 337
220 217 212 205 193 190 171 171 157 141 123 58 27 20 9 351 350 351 349 350 350 349 346 345 341 337 336 331 332 333 336 327 318 317 313 311 309 326 349 3 347 337 333
225 214 200 190 180 158 147 140 147 174 151 277 355 32 360 338 339 342 346 346 341 340 336 331 330 329 325 326 326 327 330 320 313 308 306 298 299 318 324 344 339 326 328
283 202 182 174 154 150 153 161 174 188 202 222 143 348 326 326 331 337 338 335 336 332 329 324 322 314 308 305 308 311 313 312 311 310 315 321 312 302 313 322 321 313 314
88 145 138 137 144 154 154 174 195 184 242 102 346 332 335 330 325 328 328 323 320 309 304 300 295 290 294 302 317 319 294 290 296 304 307 306 303 305 307 308 300 301 299
158 120 125 138 150 143 148 180 187 213 140 43 322 321 312 306 302 314 310 308 306 299 301 304 310 318 321 332 331 327 320 297 293 293 298 297 301 307 308 306 304 288 291
146 145 146 145 131 140 160 188 193 154 149 211 277 290 296 305 313 315 315 322 320 320 320 321 327 323 324 331 326 322 317 317 327 316 305 293 293 294 299 306 300 301 305
177 172 163 155 160 165 179 194 175 146 171 254 287 294 303 310 316 320 314 317 315 316 312 318 314 317 321 320 318 320 320 321 313 308 307 313 314 306 301 295 298 303 303
182 176 172 173 176 171 173 175 143 150 183 256 275 288 297 302 314 309 311 309 309 313 313 315 310 308 313 312 310 312 311 311 309 302 296 298 302 302 297 300 298 286 287
177 176 184 188 188 171 175 165 165 168 207 232 263 288 295 319 315 305 303 296 289 286 298 298 303 307 303 301 306 313 310 307 303 309 304 294 293 292 292 285 281 293 303
168 177 186 181 169 169 179 175 177 184 206 243 279 301 311 306 302 299 305 302 300 303 304 303 300 298 299 311 313 312 313 311 309 306 301 296 287 285 283 276 284 286 289